Tracking 29892 objects as of 21-Nov-2024
HD Live streaming from Space Station
objects crossing your sky now

STARLINK-3768

Track STARLINK-3768 now!
10-day predictions
STARLINK-3768 is classified as:


NORAD ID: 52301
Int'l Code: 2022-041AS
Perigee: 545.9 km
Apogee: 547.9 km
Inclination: 53.2 °
Period: 95.4 minutes
Semi major axis: 6917 km
RCS: Unknown
Launch date: April 21, 2022
Source: United States (US)
Launch site: AIR FORCE EASTERN TEST RANGE (AFETR)
Your satellite tracking list
Your tracking list is empty




NASA's NSSDC Master Catalog

Two Line Element Set (TLE):
1 52301U 22041AS  24324.53601511  .00000146  00000-0  27267-4 0  9996
2 52301  53.2184  72.1665 0001483  93.6194 266.4967 15.08837047142775
Source of the keplerian elements: AFSPC